[[{"header":{"parameterUnit":"m.s-1","parameterCategory":1,"la1":30.2991,"la2":30.254,"lo1":-89.0895,"lo2":-89.0444,"dy":0.0017,"dx":0.0017,"nx":28,"ny":28,"refTime":"2025-12-10T03:00:00:Z","depth":0,"parameterNumber":2,"parameterNumberName":"U-component_of_WINDS"},"data":[0,0,0,0,0,0,0,0,0,0,0,0,0,0,0,0,0,0,0,0,0,0,0,0,0,0,0,0,0,0,0,0,0,0,0,0,0,0,0,0,0,0,0,0,0,0,0,0,0,0,0,0,0,0,0,0,0,0,3.8883,3.8883,0,3.8893,3.8893,3.8893,3.8833,3.8831,3.8829,3.8828,3.8835,3.8837,3.8839,0,0,0,0,0,0,0,0,0,0,0,0,0,3.8811,3.8813,3.8883,3.8883,3.8883,3.8893,3.8893,3.8893,3.8833,3.8831,3.8829,3.8827,3.8835,3.8837,3.8839,0,0,0,0,0,0,0,0,0,0,0,0,0,3.8834,3.8814,3.8883,3.8855,3.8852,3.8893,3.8893,3.8893,3.8834,3.8831,3.8829,3.8826,3.8834,3.8837,3.8839,3.8907,0,0,3.8848,3.8849,0,0,0,0,0,0,0,0,3.8833,3.8837,3.8859,3.8857,3.8854,3.8859,3.887,3.8898,3.8834,3.8841,3.8828,3.8825,3.8845,3.8847,3.8854,3.8907,3.8908,3.8848,3.8849,3.8851,3.8851,0,0,0,0,0,0,0,3.8831,3.8836,3.8887,3.8859,3.8856,3.8841,3.8841,3.8875,3.8857,3.884,3.8835,3.8838,3.8843,3.8852,3.8854,3.8908,3.8848,3.885,3.8852,3.8853,3.9019,3.9022,0,0,0,0,0,0,3.8834,3.8835,3.8886,3.8887,3.8837,3.8844,3.8845,3.886,3.8856,3.8853,3.884,3.8835,3.8848,3.8851,3.8854,3.8934,3.8851,3.8853,3.8855,3.9016,3.902,3.9023,0,0,0,0,0,0,3.8832,3.8839,3.8886,3.886,3.8865,3.8848,3.8866,3.8861,3.887,3.8856,3.8853,3.8852,3.8846,3.885,3.8895,3.8933,3.8854,3.8857,3.9013,3.9017,3.9021,3.9093,0,0,0,0,0,0,3.8831,3.8839,3.8864,3.8861,3.8866,3.8927,3.8868,3.8863,3.8875,3.8868,3.8867,3.8864,3.8845,3.8891,3.8898,3.8935,3.8859,3.9009,3.9015,3.902,3.9088,3.91,3.911,0,0,0,0,0,3.8828,3.8883,3.8866,3.8872,3.8898,3.8929,3.8932,3.891,3.8878,3.8904,3.8896,3.8864,3.8928,3.8896,3.8903,3.8942,3.9007,3.9013,3.9019,3.9082,3.9097,3.911,0,0,0,0,0,0,3.8889,3.8882,3.8863,3.8918,3.8925,3.8919,3.895,3.8926,3.8941,3.8934,3.8905,3.8905,3.8955,3.8953,3.8918,3.9008,3.8962,3.897,3.9008,3.9022,3.9033,3.9032,3.8861,0,0,0,0,0,3.8909,3.8936,3.8928,3.8978,3.8983,3.8966,3.8979,3.8962,3.8967,3.8969,3.8964,3.8971,3.8992,3.9007,3.9026,3.9088,3.9087,3.9118,3.9129,3.9139,3.9145,3.9179,3.9193,3.9043,3.9043,3.9043,0,0,3.895,3.895,3.8968,3.899,3.8993,3.9022,3.8969,3.9,3.9021,3.8974,3.9016,3.9013,3.9018,3.9072,3.9096,3.9072,3.9187,3.9147,3.9154,3.9156,3.9187,3.9201,3.9214,3.9048,3.9047,3.9046,0,0,3.904,3.9042,3.9085,3.909,3.9097,3.9086,3.9097,3.9096,3.9092,3.9135,3.91,3.9125,3.9162,3.9168,3.9176,3.9272,3.9243,3.9279,3.9337,3.937,3.9382,3.9392,3.9427,3.9439,3.9286,3.9286,3.9286,0,3.909,3.9132,3.9109,3.9144,3.9156,3.9117,3.916,3.9165,3.9178,3.9186,3.916,3.9208,3.9209,3.9264,3.9288,3.9295,3.9307,3.9278,3.9382,3.9392,3.9401,3.9434,3.9447,3.929,3.929,3.9289,3.9289,0,3.9193,3.9223,3.9257,3.9272,3.9287,3.9326,3.9309,3.9327,3.931,3.9302,3.9347,3.9347,3.9366,3.9378,3.936,3.9432,3.9417,3.9387,3.9339,3.942,3.9451,3.9463,3.9296,3.9295,3.9294,3.9293,0,0,3.9318,3.9323,3.9336,3.9343,3.935,3.9372,3.941,3.943,3.9447,3.9457,3.9488,3.9523,3.9496,3.9505,3.9488,3.9518,3.9595,3.9484,3.9484,3.9504,3.9674,3.9696,3.9711,3.9577,3.9579,3.9581,3.9674,0,3.9406,3.9472,3.9454,3.952,3.9548,3.9513,3.9546,3.9554,3.9548,3.9571,3.9565,3.959,3.9552,3.9558,3.9586,3.9579,3.9628,3.9573,3.9605,3.9606,3.9604,3.9727,3.975,3.9837,3.9685,3.9687,3.9689,0,3.9516,3.9534,3.9603,3.9607,3.9618,3.9648,3.9667,3.9689,3.9698,3.9692,3.9704,3.9682,3.9719,3.9673,3.9725,3.9687,3.97,3.9699,3.9702,3.9703,3.9652,3.9731,3.9864,3.9877,3.9707,3.9706,3.9704,0,3.9601,3.9642,3.9689,3.9696,3.9702,3.9724,3.9728,3.9734,3.9748,3.9765,3.9774,3.9794,3.9804,3.9821,3.9805,3.9772,3.9859,3.9811,3.9855,3.9855,3.9873,3.9872,4.001,3.9883,3.9883,3.9883,3.9882,0,3.9701,3.9744,3.9727,3.9756,3.9804,3.9785,3.9833,3.9832,3.9838,3.9866,3.9837,3.9864,3.9842,3.9866,3.9854,3.9899,3.9904,3.99,3.9896,3.9903,3.9903,3.9909,3.9903,3.9886,3.9885,3.9885,3.9884,0,3.9802,3.9793,3.9842,3.9845,3.9847,3.9882,3.9885,3.9911,3.9905,3.9941,3.9949,3.9939,3.9967,3.9953,3.9982,3.9973,4.0032,4.002,4.0029,4.0026,4.007,4.0066,4.0217,4.0235,4.0097,4.0098,4.0099,0,3.9866,3.9899,3.9907,3.9924,3.9931,3.9959,3.9974,3.9957,3.9974,3.9988,4.0013,4.0039,4.0059,4.0106,4.01,4.0123,4.0111,4.0162,4.0114,4.0119,4.0111,4.0109,4.0113,4.0171,4.0173,4.0174,4.0175,0,3.998,3.9975,3.9998,4.0022,4.0042,4.0059,4.0073,4.0089,4.0073,4.0093,4.0123,4.0139,4.017,4.0196,4.0216,4.0218,4.0194,4.0191,4.0202,4.0208,4.0212,4.0211,4.0055,4.0187,4.0186,4.0185,4.0184,4.0184,4.0064,4.0093,4.0104,4.0132,4.0142,4.0157,4.0183,4.0182,4.0206,4.0231,4.022,4.0254,4.0263,4.0288,4.0295,4.0321,4.03,4.0317,4.0321,4.0325,4.0331,4.021,4.0325,4.0324,4.0324,4.0324,4.0323,0,4.0176,4.0183,4.0209,4.0232,4.0255,4.0233,4.0249,4.0269,4.03,4.0312,4.0333,4.0367,4.0394,4.0392,4.0416,4.0438,4.0427,4.0444,4.0442,4.0443,4.0348,4.0336,4.0453,4.0453,4.0453,4.0452,4.0452,4.0452,4.0237,4.0285,4.0282,4.0335,4.034,4.0375,4.0387,4.04,4.041,4.0451,4.0473,4.0473,4.0479,4.0504,4.0527,4.0526,4.0536,4.0558,4.0552,4.0463,4.045,4.0438,4.0426,4.056,4.056,4.0645,4.0646,4.0647]},{"header":{"parameterUnit":"m.s-1","parameterCategory":1,"la1":30.2991,"la2":30.254,"lo1":-89.0895,"lo2":-89.0444,"dy":0.0017,"dx":0.0017,"nx":28,"ny":28,"refTime":"2025-12-10T03:00:00:Z","depth":0,"parameterNumber":3,"parameterNumberName":"V-component_of_WINDS"},"data":[0,0,0,0,0,0,0,0,0,0,0,0,0,0,0,0,0,0,0,0,0,0,0,0,0,0,0,0,0,0,0,0,0,0,0,0,0,0,0,0,0,0,0,0,0,0,0,0,0,0,0,0,0,0,0,0,0,0,0.9536,0.9541,0,0.9952,0.9957,0.9962,1.0145,1.0145,1.0144,1.0144,1.0575,1.0587,1.0599,0,0,0,0,0,0,0,0,0,0,0,0,0,0.8908,0.8918,0.9536,0.9541,0.9546,0.9951,0.9957,0.9963,1.0145,1.0145,1.0144,1.0143,1.0571,1.0586,1.06,0,0,0,0,0,0,0,0,0,0,0,0,0,0.9238,0.8922,0.9535,0.9686,0.9704,0.995,0.9957,0.9964,1.0146,1.0145,1.0144,1.0143,1.0567,1.0584,1.0602,1.0731,0,0,1.0657,1.0665,0,0,0,0,0,0,0,0,0.9219,0.9261,0.9659,0.9676,0.9696,0.9996,0.9894,1.0222,1.0146,0.9978,1.0144,1.0143,1.0384,1.0417,1.0497,1.0752,1.077,1.0659,1.067,1.0678,1.0683,0,0,0,0,0,0,0,0.9196,0.9244,0.9701,0.9664,0.9687,0.9736,0.9782,0.9957,1.0181,0.9993,1.0007,1.0053,1.0394,1.0479,1.0508,1.0776,1.0658,1.0674,1.0686,1.0693,1.1162,1.1164,0,0,0,0,0,0,0.9147,0.9223,0.9688,0.9713,0.945,0.9748,0.9799,0.9901,1.0179,1.0221,1.0054,1.006,1.0449,1.0487,1.0524,1.0697,1.0678,1.0694,1.0705,1.1161,1.1163,1.1164,0,0,0,0,0,0,0.9133,0.9187,0.9671,0.9473,0.9538,0.9759,0.9872,0.9909,0.9995,1.0226,1.0267,1.0099,1.0449,1.0499,1.0679,1.0714,1.0703,1.0719,1.1159,1.1161,1.1164,1.104,0,0,0,0,0,0,0.9114,0.918,0.923,0.9472,0.9548,0.9816,0.9874,0.9918,1.0025,1.0037,1.0279,1.0318,1.0453,1.0651,1.0697,1.0739,1.0733,1.1157,1.116,1.1163,1.1042,1.1038,1.1035,0,0,0,0,0,0.9091,0.9179,0.9231,0.9286,0.9614,0.9817,0.9861,1.0012,1.0026,1.008,1.0229,1.0311,1.0702,1.0668,1.0721,1.0769,1.1155,1.1159,1.1163,1.1044,1.1039,1.1035,0,0,0,0,0,0,0.8937,0.9213,0.9275,0.9443,0.9605,0.9848,0.9919,1.0001,1.0164,1.0169,1.0352,1.0405,1.057,1.0688,1.0644,1.0911,1.0936,1.0951,1.0828,1.0825,1.0821,1.0791,1.0748,0,0,0,0,0,0.8922,0.9062,0.9297,0.9423,0.9502,0.9696,0.979,0.9892,1.0069,1.0139,1.0301,1.047,1.0632,1.0735,1.0896,1.106,1.1117,1.1119,1.1115,1.1111,1.1122,1.1221,1.1226,1.1176,1.1176,1.1176,0,0,0.8894,0.9062,0.914,0.9397,0.9534,0.9678,0.9752,0.9901,1.0011,1.0162,1.0342,1.0467,1.0668,1.0841,1.0926,1.0945,1.1149,1.1116,1.1111,1.1125,1.1225,1.123,1.1234,1.1179,1.1179,1.1178,0,0,0.8916,0.9056,0.9178,0.9314,0.9521,0.965,0.9679,0.9911,0.9999,1.0182,1.03,1.0434,1.0707,1.0847,1.0954,1.1031,1.1114,1.1079,1.106,1.1154,1.1158,1.1163,1.1193,1.1202,1.1088,1.1088,1.1088,0,0.8855,0.9074,0.9231,0.9374,0.9485,0.9627,0.9754,0.9879,1.0129,1.0204,1.0221,1.0569,1.0715,1.0924,1.0943,1.1023,1.1065,1.1053,1.1144,1.115,1.1157,1.1188,1.1199,1.1083,1.1083,1.1084,1.1084,0,0.8991,0.9141,0.9216,0.9452,0.9571,0.9705,0.9885,0.9987,1.0079,1.0207,1.0394,1.0573,1.0775,1.0832,1.0924,1.1056,1.1061,1.1108,1.1138,1.1154,1.1186,1.1199,1.1075,1.1077,1.1078,1.108,0,0,0.8928,0.925,0.9274,0.9385,0.9624,0.9745,0.9887,1.0082,1.0168,1.0336,1.0462,1.0691,1.0737,1.0858,1.0967,1.1049,1.1103,1.1088,1.1096,1.1087,1.1264,1.1228,1.1239,1.1158,1.1161,1.1164,1.1248,0,0.8985,0.9243,0.9389,0.9588,0.9731,0.9869,0.9993,1.0155,1.0278,1.042,1.0558,1.0718,1.0765,1.084,1.0927,1.1077,1.1141,1.1073,1.1281,1.1286,1.1228,1.1256,1.1218,1.1288,1.1261,1.1263,1.1265,0,0.9086,0.925,0.9462,0.9688,0.9754,0.9862,1.0055,1.0187,1.0375,1.046,1.0595,1.0704,1.0862,1.0877,1.11,1.105,1.1144,1.1231,1.1238,1.1265,1.1277,1.1286,1.1314,1.1325,1.1286,1.1284,1.1283,0,0.9022,0.9296,0.9459,0.9549,0.9816,0.9889,1.0004,1.0191,1.03,1.047,1.0543,1.0728,1.0831,1.0973,1.113,1.1126,1.1339,1.1366,1.1416,1.1412,1.1456,1.1452,1.1502,1.1511,1.1511,1.1511,1.1511,0,0.9071,0.9196,0.9434,0.9535,0.9681,0.9848,0.9989,1.0115,1.0281,1.0411,1.0542,1.0661,1.086,1.1006,1.113,1.1297,1.1342,1.1417,1.1449,1.1407,1.1398,1.1473,1.1473,1.1514,1.1513,1.1513,1.1512,0,0.9025,0.9188,0.9376,0.9613,0.9676,0.9773,0.9978,1.0083,1.0213,1.0376,1.0425,1.0631,1.0809,1.0979,1.1217,1.1301,1.147,1.151,1.1406,1.1424,1.1465,1.146,1.1568,1.1592,1.158,1.158,1.158,0,0.9046,0.9146,0.9394,0.9489,0.9601,0.9753,0.9866,1.0036,1.0148,1.037,1.0449,1.0636,1.0796,1.1075,1.1247,1.1431,1.1479,1.1504,1.1508,1.1463,1.1484,1.1476,1.1489,1.1501,1.15,1.1499,1.1499,0,0.9068,0.9145,0.93,0.9485,0.9615,0.9769,0.9928,0.9999,1.0201,1.032,1.0504,1.0627,1.0871,1.1057,1.1261,1.1383,1.1476,1.1496,1.1518,1.1478,1.1414,1.1452,1.1398,1.1494,1.1494,1.1494,1.1495,1.1495,0.906,0.9156,0.9345,0.9515,0.9652,0.9798,0.9909,1.0053,1.0208,1.0419,1.0511,1.0696,1.0886,1.117,1.129,1.144,1.1462,1.1493,1.1502,1.1507,1.15,1.1387,1.1478,1.1478,1.1479,1.1479,1.1479,0,0.9091,0.922,0.9374,0.9592,0.9726,0.98,0.998,1.0089,1.025,1.0417,1.0571,1.0784,1.0965,1.1152,1.1345,1.1429,1.1477,1.1475,1.1472,1.1499,1.1468,1.1431,1.1433,1.1433,1.1433,1.1433,1.1433,1.1433,0.9123,0.929,0.9389,0.9628,0.9758,0.9939,1.0036,1.0173,1.0308,1.0538,1.0689,1.0809,1.0987,1.1194,1.1365,1.1416,1.1482,1.1468,1.153,1.1498,1.1501,1.1503,1.1469,1.148,1.148,1.155,1.1551,1.1551]}]]